AirNav   Air Wisconsin pilot careers
 
 731 users online  

W00 Freeway Airport
Bowie, Maryland, USA

GOING TO BOWIE?


FAA INFORMATION EFFECTIVE 01 FEBRUARY 2018

Location

FAA Identifier: W00
Lat/Long: 38-56-28.8670N / 076-46-20.5790W
38-56.481117N / 076-46.342983W
38.9413519 / -76.7723831
(estimated)
Elevation: 168.1 ft. / 51.2 m (surveyed)
Variation: 10W (1995)
From city: 2 miles NW of BOWIE, MD
Time zone: UTC -5 (UTC -4 during Daylight Saving Time)
Zip code: 20721

Airport Operations

Airport use: Open to the public
Activation date: 06/1961
Control tower: no
ARTCC: WASHINGTON CENTER
FSS: LEESBURG FLIGHT SERVICE STATION
NOTAMs facility: DCA (NOTAM-D service available)
Attendance: 0800-DARK
UNATNDD MAJOR HOLIDAYS.
Wind indicator: lighted
Segmented circle: yes
Lights: ACTVT MIRL RY 18/36 & PAPI RYS 18 & 36 - CTAF.
Beacon: white-green (lighted land airport)
Operates sunset to sunrise.

Airport Communications

CTAF/UNICOM: 123.075
POTOMAC APPROACH: 128.0(DC SFRA)
POTOMAC DEPARTURE: 128.0(DC SFRA)
IRONS STAR: 126.4
TIKEE STAR: 120.45
WX AWOS-3 at CGS (7 nm W): 121.225 (301-864-5497)
WX AWOS-3 at FME (9 nm N): 123.925
WX ASOS at DCA (14 nm SW): 132.65 (703-412-8140)
WX ASOS at BWI (15 nm N): PHONE 410-691-1278

Nearby radio navigation aids

VOR radial/distance  VOR name  Freq  Var
ADWr039/9.2ANDREWS VORTAC113.1010W
DCAr077/13.3WASHINGTON VOR/DME111.0009W
OTTr005/14.2NOTTINGHAM VORTAC113.7010W
BALr212/14.7BALTIMORE VORTAC115.1011W
AMLr097/32.4ARMEL VOR/DME113.5008W
EMIr172/34.6WESTMINSTER VORTAC117.9008W
FDKr143/(39.8)FREDERICK VOR109.0008W

 
NDB name  Hdg/Dist  Freq  Var  ID
OXONN060/15.933211WDCA -.. -.-. .-
GEORGETOWN097/16.432309WGTN --. - -.
ELLICOTT190/20.837111WFND ..-. -. -..
DAVEE052/23.022309WDAA -.. .- .-

Airport Services

Fuel available: 100LL
24 HR SELF SERVE 100LL AVBL W/ CREDIT CARD.
Parking: tiedowns
Airframe service: MAJOR
Powerplant service: MAJOR
Bottled oxygen: NONE
Bulk oxygen: NONE

Runway Information

Runway 18/36

Dimensions: 2420 x 40 ft. / 738 x 12 m
Surface: asphalt, in fair condition
Runway edge lights: medium intensity
RUNWAY 18  RUNWAY 36
Latitude: 38-56.678667N38-56.285833N
Longitude: 076-46.386167W076-46.299667W
Elevation: 168.1 ft.151.6 ft.
Traffic pattern: leftright
Runway heading: 180 magnetic, 170 true000 magnetic, 350 true
Displaced threshold: no230 ft.
Markings: nonprecision, in good conditionnonprecision, in good condition
Visual slope indicator: 2-light PAPI on right (6.00 degrees glide path)2-light PAPI on left (5.50 degrees glide path)
Touchdown point: yes, no lightsyes, no lights
Obstructions: 71 ft. trees, 762 ft. from runway, 232 ft. left of centerline, 7:1 slope to clear
+7 FT ROAD AT 115 FT OUT, OB.
94 ft. trees, 453 ft. from runway, 151 ft. left of centerline, 2:1 slope to clear
APCH RATIO 16:1 TO DSPLCD THLD AT CNTRLN.

Airport Ownership and Management from official FAA records

Ownership: Privately-owned
Owner: FREEWAY AIRPORT INC.
3900 CHURCH RD
BOWIE, MD 20721
Phone 301-390-6424
Manager: STANLEY RODENHAUSER
3900 CHURCH RD
MITCHELLVILLE, MD 20716
Phone 301-390-6424

Airport Operational Statistics

Aircraft based on the field: 77
Single engine airplanes: 74
Multi engine airplanes: 2
Ultralights: 1
    
Aircraft operations: avg 88/day *
93% local general aviation
6% transient general aviation
<1% military
<1% air taxi
* for 12-month period ending 12 September 2017

Additional Remarks

TPA 1000 FT MSL (832 FT AGL) FOR ACFT LESS THAN 4000 LBS MAX GWT; TPA 1200 FT MSL (1032 FT AGL) FOR ACFT GREATER THAN 4000 LBS.
-15 FT DROP 80 FT FROM APCH TO RY 36.
-7 FT DROP 50 FT FM APCH END RY 18.
LGTD ANTENNA 135 FT AGL 600 FT NW AER 18.
FOR CD CTC POTOMAC APCH AT 866-599-3874.

Instrument Procedures

NOTE: All procedures below are presented as PDF files. If you need a reader for these files, you should download the free Adobe Reader.

NOT FOR NAVIGATION. Please procure official charts for flight.
FAA instrument procedures published for use between 1 February 2018 at 0901Z and 1 March 2018 at 0900Z.

 
STARs - Standard Terminal Arrivals
TIKEE THREE (RNAV)   download (212KB)
 
IAPs - Instrument Approach Procedures
RNAV (GPS) RWY 18   download (196KB)
RNAV (GPS) RWY 36   download (207KB)
NOTE: Special Take-Off Minimums/Departure Procedures apply   download (245KB)

Other nearby airports with instrument procedures:

KCGS - College Park Airport (7 nm W)
KFME - Tipton Airport (9 nm N)
KADW - Joint Base Andrews (9 nm SW)
KANP - Lee Airport (10 nm E)
KDCA - Ronald Reagan Washington National Airport (14 nm SW)
W32 - Washington Executive Airport/Hyde Field (14 nm SW)
KVKX - Potomac Airfield (14 nm SW)
KBWI - Baltimore/Washington International Thurgood Marshall Airport (15 nm N)
 
Loc | Ops | Rwys | IFR | FBO | Links
Com | Nav | Svcs | Stats | Notes

AirNav Hotels Sweepstakes
 
Area around W00 (Freeway Airport)
 
Road maps at: MapQuest Bing Google
 
Aerial photo
WARNING: Photo may not be current or correct
Aerial photo of W00 (Freeway Airport)
Photo taken 19-Oct-2016
looking northeast.

Do you have a better or more recent aerial photo of Freeway Airport that you would like to share? If so, please send us your photo.

 
Sectional chart

 
Airport distance calculator
Flying to Freeway Airport? Find the distance to fly.

From to W00

Sunrise and sunset
Times for 23-Feb-2018
 Local
(UTC-5)
 Zulu
(UTC)
Morning civil twilight06:2211:22
Sunrise06:4911:49
Sunset17:5222:52
Evening civil twilight18:1923:19

Current date and time
Zulu (UTC)  24-Feb-2018 04:23:51
Local (UTC-5)  23-Feb-2018 23:23:51
 
METAR
KCGS 
7nm W 
240358Z AUTO 00000KT 1 3/4SM OVC003 08/07 A3026 RMK AO1 T00750071
KFME 
9nm N 
240357Z AUTO 00000KT 1SM OVC002 06/06 A3029 RMK AO1
KADW 
9nm SW 
240356Z AUTO 22003KT 4SM BR OVC002 08/08 A3026 RMK AO2 SLP255 T00800077 $
KANP 
10nm E 
SuperAWOS
240055Z AUTO 00000KT 7SM 07/05 A3030
KDCA 
13nm SW 
240352Z 19003KT 3SM BR OVC004 08/08 A3028 RMK AO2 DZE48 SLP252 VIS SW 2 1/2 P0000 T00830083
KNAK 
14nm E 
240354Z AUTO 00000KT 1SM BR OVC005 08/08 A3027 RMK AO2 SLP252 T00780078
KBWI 
14nm N 
240354Z 00000KT 1/2SM R10/4000V5000FT -DZ FG VV003 06/06 A3026 RMK AO2 DZB43 SLP247 P0000 T00610061 $
KVKX 
14nm SW 
SuperAWOS
240355Z AUTO 00000KT 3SM BR 08/08 A3026
TAF
KADW 
9nm SW 
232211Z 2322/2423 13006KT 9999 OVC005 QNH3035INS BECMG 2403/2404 20009KT 6000 BR OVC006 QNH3018INS TEMPO 2407/2411 1600 BR TEMPO 2421/2423 8000 -SHRA OVC004 TX11/2417Z TN07/2322Z
KDCA 
13nm SW 
240023Z 2400/2506 18007KT P6SM OVC009 FM240600 21006KT 4SM BR OVC003 FM240900 22004KT 2SM BR OVC003 FM241500 07004KT 5SM BR OVC008 FM242100 07006KT 5SM -SHRA BR OVC008 FM250300 08007KT 2SM -SHRA BR OVC008
KBWI 
14nm N 
240024Z 2400/2506 00000KT 1 1/2SM BR OVC003 FM240500 22004KT 1SM -DZ BR OVC003 FM240600 23004KT 3/4SM BR OVC003 FM241500 VRB03KT 1SM BR OVC008 FM241800 06004KT 3SM -SHRA BR OVC008 FM250300 08007KT 2SM -SHRADZ BR OVC008
NOTAMs
Click for the latest NOTAMs
NOTAMs are issued by the DoD/FAA and will open in a separate window not controlled by AirNav.

 

 
 

FBO, Fuel Providers, and Aircraft Ground Support

  
 Business Name 
 
 Contact 
 
 Services / Description 
 
Fuel Prices
 
Comments
  
Freeway Aviation 301-390-6424
no information available

If you are affiliated with Freeway Aviation and would like to show here your services, contact info, web link, logo, and more, click here
100LL
SS $5.30 
 Updated 19-Feb-2018
 
   1 read write
SS=Self service
Update Fuel Prices
 

Would you like to see your business listed on this page?

 If your business provides an interesting product or service to pilots, flight crews, aircraft, or users of the Freeway Airport, you should consider listing it here.  To start the listing process, click on the button below
 
Add a business
 

Other Pages about Freeway Airport

www.freewayaviation.com
 
Update a link
 
Copyright © AirNav, LLC. All rights reserved. Privacy Policy  Contact